Showing default

YAOGAN-43 02D, 60948

Orbit data source: Space-Track

YAOGAN-43 02D, 60948 is a payload satellite owned by PLA GAD (CN) in LEO that was launched on Tue, 03 Sep 2024 UTC via a CHANG ZHENG 4B launch vehicle from the Xichang Space Center, China (XSC). Payload-class satellites include a variety of spacecraft equipped with specific instruments for various scientific and technological missions. These include communications satellites like Starlink; space stations such as the ISS; scientific satellites like the Hubble; Earth observation satellites from companies like Planet Labs, Umbra, and HawkEye 360; GPS; miniature CubeSats for education and research; and military/defense satellites.

Loading next visibility...
Identifier
60948, 2024-156D
Orbit
LEO
Country
Flag of CNCN / PRC
Related business
Manufacturer
SAST
Mission
Operational Defense Communications
Bus & Motor
Unknown
Mass
~300 kg wet, ~300 kg dry
Launch date (UTC)
2024-09-03 (1 year ago)
Launch vehicle
CHANG ZHENG 4B
Launch site
Xichang Space Center, China (XSC)
Object type
Payload
Rocket body
Debris
Shape & HBR
Box + 2 Pan, 2.5 m
Radar Cross Section
11.063 m², Large (>1 m²)

Expand to show TLE details & history
Last TLE update: 3 days ago

TLE from 3 days ago
0 YAOGAN-43 02D
1 60948U 24156D   26033.80362782  .00012410  00000-0  51117-3 0  9991
2 60948  34.9938 323.1413 0003861 130.7325 229.3726 15.23298968 78943
Epoch: 2026-02-02T19:17Z
TLE epoch observation values (Epoch: 2026-02-02T19:17:13.443Z)
Latitude
0.00002°
Longitude
-99.15836°
Altitude
496.533 km
Speed
7.618 km/s
True Right ascension
21h 32m 33s
True Declination
0° 00' 00"
Sunlit
Object was in daylight at epoch
Visualization orbit readout
Latitude
Unknown
Longitude
Unknown
Altitude
Unknown
Speed
Unknown
Apparent Right ascension
Unknown
Apparent Declination
Unknown
Sunlit
N/A
Visualization observer readout
Local Sidereal Time
04:05:07
Azimuth
Unknown
Elevation
Unknown
Doppler factor
Unknown
Orbital elements
Apogee altitude
501.805 km
Perigee altitude
496.494 km
Semi-major axis
6,877.287 km
Eccentricity
0.00039
Inclination
34.9938°
RAAN
323.1413°
Arg. of periapsis
130.7325°
True anomaly
229.33903°
Mean anomaly
229.3726°
Eccentric anomaly
229.35581°
Mean motion
3.80555 °/min
Orbital period
94.6 mins
BSTAR
0.00051117
Loading maneuver chart data...
Computing Atmospheric mass density...
Loading historical data...
Loading historical data...
Loading historical data...
Loading historical data...
Loading historical data...
Loading historical data...
Loading historical data...

Documentation

Showing up to 5 results
|